Location: Foligno
(42.9600°N, 12.7050°E)
Time: 15:21:00
(UTC+02:00)

ISS - Visible Passes

Search period start: 21 September 2018 00:00
Search period end: 01 October 2018 00:00
Orbit: 403 x 408 km, 51.6° (Epoch: 21 September)

Date Brightness Start Highest point End Pass type
(mag) Time Alt. Az. Time Alt. Az. Time Alt. Az.
21 Sep -1.6 19:43:23 10° SE 19:44:02 10° SE 19:44:40 10° ESE visible
21 Sep -1.5 21:16:45 10° SW 21:17:51 19° SW 21:17:51 19° SW visible
22 Sep -3.5 20:25:05 10° SW 20:28:15 44° SE 20:28:51 39° ESE visible
23 Sep -2.5 19:33:47 10° SSW 19:36:30 24° SE 19:39:15 10° E visible
23 Sep -2.6 21:09:40 10° WSW 21:12:20 42° WNW 21:12:20 42° WNW visible
24 Sep -3.8 20:17:39 10° WSW 20:20:57 78° NNW 20:22:55 22° NE visible
24 Sep -0.4 21:55:12 10° WNW 21:55:36 12° WNW 21:55:36 12° WNW visible
25 Sep -3.7 19:25:51 10° SW 19:29:05 57° SE 19:32:20 10° ENE visible
25 Sep -2.0 21:02:52 10° W 21:05:46 28° NNW 21:06:00 27° N visible
26 Sep -2.6 20:10:36 10° W 20:13:45 39° NNW 20:16:18 14° NE visible
26 Sep -0.4 21:48:30 10° NW 21:48:59 12° NW 21:48:59 12° NW visible
27 Sep -1.7 20:56:10 10° WNW 20:58:44 20° N 20:59:10 20° N visible
28 Sep -1.9 20:03:48 10° WNW 20:06:36 25° NNW 20:09:17 11° NE visible
28 Sep -0.4 21:41:32 10° NW 21:41:57 12° NW 21:41:57 12° NW visible
29 Sep -1.5 20:49:21 10° NW 20:51:43 18° N 20:52:00 18° N visible
30 Sep -1.6 19:57:01 10° WNW 19:59:31 19° N 20:02:00 10° NE visible
30 Sep -0.5 21:34:16 10° NW 21:34:41 12° NW 21:34:41 12° NW visible
